This is the latest recevied weather packets stored in our database for station/object AA0PB. If no packets are shown the sender has not sent any weather packets the latest 10 day(s).
| Time | Temp. | Humidity | Pressure | Rain* | Wind** | Luminosity | Snow |
|---|---|---|---|---|---|---|---|
| 1777510954 | 22.22° C | 40% | 1020.7 hPa | 0 mm | - | 225 W/m² | - |
| 1777510651 | 22.22° C | 40% | 1020.6 hPa | 0 mm | - | 238 W/m² | - |
| 1777510347 | 22.22° C | 40% | 1020.4 hPa | 0 mm | - | 251 W/m² | - |
| 1777510044 | 22.22° C | 38% | 1020.4 hPa | 0 mm | - | 262 W/m² | - |
| 1777509740 | 22.78° C | 39% | 1020.7 hPa | 0 mm | - | 276 W/m² | - |
| 1777509436 | 22.78° C | 39% | 1020.6 hPa | 0 mm | - | 290 W/m² | - |
| 1777509134 | 22.78° C | 39% | 1020.5 hPa | 0 mm | - | 302 W/m² | - |
| 1777508831 | 22.22° C | 38% | 1020.6 hPa | 0 mm | - | 315 W/m² | - |
| 1777508528 | 22.78° C | 39% | 1020.6 hPa | 0 mm | - | 327 W/m² | - |
| 1777508225 | 22.78° C | 39% | 1020.7 hPa | 0 mm | - | 341 W/m² | - |
| 1777507922 | 22.78° C | 40% | 1020.5 hPa | 0 mm | - | 353 W/m² | - |
| 1777507619 | 22.22° C | 40% | 1020.7 hPa | 0 mm | - | 365 W/m² | - |
| 1777507315 | 22.22° C | 41% | 1020.7 hPa | 0 mm | - | 379 W/m² | - |
| 1777507013 | 22.22° C | 40% | 1020.6 hPa | 0 mm | - | 391 W/m² | - |
| 1777506710 | 22.78° C | 40% | 1020.8 hPa | 0 mm | - | 402 W/m² | - |
| 1777506406 | 22.22° C | 41% | 1020.9 hPa | 0 mm | - | 364 W/m² | - |
| 1777506102 | 21.67° C | 41% | 1020.9 hPa | 0 mm | - | 159 W/m² | - |
| 1777505798 | 22.22° C | 41% | 1021 hPa | 0 mm | - | 439 W/m² | - |
| 1777505495 | 21.67° C | 41% | 1020.9 hPa | 0 mm | - | 450 W/m² | - |
| 1777505192 | 22.78° C | 40% | 1021.2 hPa | 0 mm | - | 461 W/m² | - |
| 1777504888 | 21.67° C | 42% | 1021.1 hPa | 0 mm | - | 473 W/m² | - |
| 1777504586 | 21.11° C | 44% | 1021.1 hPa | 0 mm | - | 484 W/m² | - |
| 1777504281 | 21.11° C | 43% | 1021.3 hPa | 0 mm | - | 496 W/m² | - |
| 1777503977 | 22.22° C | 41% | 1021.3 hPa | 0 mm | - | 505 W/m² | - |
| 1777503674 | 22.78° C | 42% | 1021.6 hPa | 0 mm | - | 518 W/m² | - |
* Rain latest hour (hover to see other rain measurements)
** Current wind speed in m/s (hover to see current wind gust speed)